ITY1830 LICD-LIRF

Flight info

Callsign ITY1830
Flight time 1h 17m
Altitude 34000
Route PURZE Z404 DEXOL DCT LONDI DCT LURON DCT BEROL DCT PNZ DCT NEKPI DCT LAT
Aircraft A320/M-SDE3FGHIRWY/LB1

Departure

Time 2026-05-07 14:15
Airport Lampedusa Airport (LICD)

Arrival

Time 2026-05-07 15:33
Airport Rome–Fiumicino Leonardo da Vinci International Airport (LIRF)
Time Latitude Longitude Altitude Speed Heading
2026-05-07 14:01 35.49965 12.61552 62 ft 0 kts 278°
2026-05-07 14:08 35.49965 12.61553 62 ft 0 kts 278°
2026-05-07 14:08 35.49961 12.61576 56 ft 4 kts 290°
2026-05-07 14:08 35.49956 12.61595 55 ft 2 kts 245°
2026-05-07 14:08 35.49963 12.61605 56 ft 2 kts 217°
2026-05-07 14:09 35.49968 12.61610 57 ft 0 kts 213°
2026-05-07 14:11 35.49967 12.61609 56 ft 0 kts 213°
2026-05-07 14:11 35.49954 12.61598 59 ft 6 kts 213°
2026-05-07 14:11 35.49909 12.61574 61 ft 8 kts 190°
2026-05-07 14:11 35.49861 12.61599 61 ft 8 kts 149°
2026-05-07 14:12 35.49808 12.61639 60 ft 10 kts 143°
2026-05-07 14:12 35.49789 12.61719 63 ft 10 kts 84°
2026-05-07 14:12 35.49804 12.61812 63 ft 14 kts 79°
2026-05-07 14:12 35.49826 12.61982 66 ft 26 kts 81°
2026-05-07 14:13 35.49860 12.62243 72 ft 36 kts 80°
2026-05-07 14:13 35.49903 12.62542 75 ft 37 kts 79°
2026-05-07 14:13 35.49931 12.62789 75 ft 19 kts 82°
2026-05-07 14:13 35.49963 12.62912 72 ft 14 kts 117°
2026-05-07 14:14 35.49907 12.62892 73 ft 8 kts 262°
2026-05-07 14:14 35.49931 12.62838 67 ft 10 kts 284°
2026-05-07 14:14 35.49929 12.62775 75 ft 0 kts 262°
2026-05-07 14:14 35.49926 12.62752 73 ft 13 kts 261°
2026-05-07 14:15 35.49929 12.62420 73 ft 72 kts 264°
2026-05-07 14:15 35.49777 12.61560 55 ft 134 kts 260°
2026-05-07 14:15 35.49610 12.60333 617 ft 149 kts 262°
2026-05-07 14:15 35.49426 12.59073 1359 ft 150 kts 262°
2026-05-07 14:16 35.49248 12.57751 1878 ft 168 kts 264°
2026-05-07 14:16 35.49068 12.56247 2189 ft 195 kts 263°
2026-05-07 14:16 35.48818 12.54473 2618 ft 224 kts 261°
2026-05-07 14:16 35.48130 12.52734 3391 ft 241 kts 227°
2026-05-07 14:17 35.46597 12.51675 3970 ft 274 kts 197°
2026-05-07 14:17 35.44609 12.51594 4008 ft 288 kts 175°
2026-05-07 14:17 35.42749 12.52360 4004 ft 286 kts 153°
2026-05-07 14:17 35.41245 12.54007 4473 ft 292 kts 128°
2026-05-07 14:18 35.40363 12.56188 5731 ft 289 kts 107°
2026-05-07 14:18 35.40228 12.58704 6484 ft 304 kts 88°
2026-05-07 14:18 35.40375 12.61309 7346 ft 309 kts 87°
2026-05-07 14:18 35.40476 12.63960 8172 ft 315 kts 89°
2026-05-07 14:19 35.40534 12.66688 8969 ft 322 kts 90°
2026-05-07 14:19 35.40609 12.69419 9801 ft 327 kts 89°
2026-05-07 14:19 35.41041 12.72170 10522 ft 333 kts 64°
2026-05-07 14:19 35.42362 12.74520 11008 ft 341 kts 38°
2026-05-07 14:20 35.44357 12.76138 11352 ft 351 kts 22°
2026-05-07 14:20 35.46606 12.77506 11618 ft 371 kts 20°
2026-05-07 14:20 35.48995 12.78928 11853 ft 393 kts 21°
2026-05-07 14:20 35.51478 12.80497 12267 ft 405 kts 22°
2026-05-07 14:21 35.53966 12.82110 13137 ft 405 kts 21°
2026-05-07 14:21 35.56494 12.83692 13716 ft 411 kts 21°
2026-05-07 14:21 35.59067 12.85278 14290 ft 416 kts 21°
2026-05-07 14:21 35.61658 12.86907 14858 ft 421 kts 22°
2026-05-07 14:22 35.64272 12.88570 15380 ft 426 kts 22°
2026-05-07 14:22 35.66920 12.90241 15946 ft 430 kts 22°
2026-05-07 14:22 35.69600 12.91920 16469 ft 435 kts 22°
2026-05-07 14:22 35.72307 12.93624 16999 ft 439 kts 22°
2026-05-07 14:23 35.75040 12.95355 17517 ft 443 kts 23°
2026-05-07 14:23 35.77790 12.97096 18048 ft 447 kts 23°
2026-05-07 14:23 35.80570 12.98848 18505 ft 450 kts 23°
2026-05-07 14:23 35.83373 13.00609 18960 ft 453 kts 22°
2026-05-07 14:24 35.86190 13.02372 19405 ft 456 kts 22°
2026-05-07 14:24 35.89033 13.04145 19835 ft 459 kts 22°
2026-05-07 14:24 35.91892 13.05921 20270 ft 462 kts 22°
2026-05-07 14:24 35.94775 13.07705 20692 ft 465 kts 22°
2026-05-07 14:25 35.97706 13.09393 21082 ft 463 kts 13°
2026-05-07 14:25 36.00827 13.10090 21516 ft 452 kts 357°
2026-05-07 14:25 36.03962 13.10127 21873 ft 451 kts 351°
2026-05-07 14:25 36.07060 13.09976 22248 ft 453 kts 351°
2026-05-07 14:26 36.10231 13.09946 22622 ft 460 kts 355°
2026-05-07 14:26 36.13444 13.10240 22994 ft 466 kts 359°
2026-05-07 14:26 36.16691 13.10656 23359 ft 468 kts 359°
2026-05-07 14:26 36.19943 13.10904 23663 ft 468 kts 355°
2026-05-07 14:27 36.23208 13.11021 24005 ft 469 kts 355°
2026-05-07 14:27 36.26488 13.11224 24303 ft 473 kts 357°
2026-05-07 14:27 36.29777 13.11527 24600 ft 475 kts 358°
2026-05-07 14:27 36.33077 13.11793 24904 ft 476 kts 356°
2026-05-07 14:28 36.36395 13.11991 25186 ft 477 kts 356°
2026-05-07 14:28 36.39723 13.12200 25477 ft 480 kts 356°
2026-05-07 14:28 36.43061 13.12460 25759 ft 482 kts 357°
2026-05-07 14:28 36.46412 13.12722 26024 ft 483 kts 356°
2026-05-07 14:29 36.49731 13.12949 26297 ft 484 kts 356°
2026-05-07 14:29 36.53102 13.13174 26556 ft 486 kts 356°
2026-05-07 14:29 36.56484 13.13420 26815 ft 488 kts 356°
2026-05-07 14:29 36.59877 13.13675 27060 ft 490 kts 356°
2026-05-07 14:30 36.63292 13.13919 27297 ft 491 kts 355°
2026-05-07 14:30 36.66708 13.14158 27545 ft 493 kts 355°
2026-05-07 14:30 36.70131 13.14403 27830 ft 493 kts 355°
2026-05-07 14:30 36.73560 13.14657 28189 ft 492 kts 355°
2026-05-07 14:31 36.76971 13.14904 28523 ft 491 kts 355°
2026-05-07 14:31 36.80375 13.15145 28849 ft 490 kts 355°
2026-05-07 14:31 36.83775 13.15389 29180 ft 489 kts 354°
2026-05-07 14:31 36.87176 13.15638 29508 ft 488 kts 354°
2026-05-07 14:32 36.90568 13.15884 29823 ft 488 kts 354°
2026-05-07 14:32 36.93958 13.16128 30086 ft 487 kts 354°
2026-05-07 14:32 36.97345 13.16371 30342 ft 487 kts 354°
2026-05-07 14:32 37.00684 13.16614 30585 ft 487 kts 354°
2026-05-07 14:33 37.04067 13.16861 30835 ft 487 kts 354°
2026-05-07 14:33 37.07447 13.17107 31085 ft 486 kts 354°
2026-05-07 14:33 37.10831 13.17352 31340 ft 486 kts 354°
2026-05-07 14:33 37.14205 13.17597 31590 ft 486 kts 354°
2026-05-07 14:34 37.17583 13.17844 31844 ft 485 kts 354°
2026-05-07 14:34 37.20951 13.18090 32104 ft 484 kts 354°
2026-05-07 14:34 37.24313 13.18335 32365 ft 483 kts 354°
2026-05-07 14:34 37.27673 13.18580 32620 ft 483 kts 354°
2026-05-07 14:35 37.31023 13.18825 32886 ft 482 kts 354°
2026-05-07 14:35 37.34364 13.19056 33150 ft 478 kts 352°
2026-05-07 14:35 37.37659 13.18965 33420 ft 471 kts 347°
2026-05-07 14:35 37.40925 13.18771 33674 ft 470 kts 347°
2026-05-07 14:36 37.44194 13.18594 33889 ft 470 kts 348°
2026-05-07 14:36 37.50747 13.18305 33867 ft 476 kts 348°
2026-05-07 14:37 37.57366 13.17969 33879 ft 474 kts 348°
2026-05-07 14:37 37.67270 13.17496 33875 ft 474 kts 348°
2026-05-07 14:38 37.73822 13.17159 33874 ft 475 kts 347°
2026-05-07 14:38 37.80438 13.16847 33876 ft 475 kts 347°
2026-05-07 14:39 37.87028 13.16517 33873 ft 473 kts 347°
2026-05-07 14:39 37.91835 13.16281 33874 ft 473 kts 347°
2026-05-07 14:40 37.98415 13.15957 33870 ft 473 kts 347°
2026-05-07 14:40 38.04996 13.15629 33868 ft 473 kts 347°
2026-05-07 14:41 38.11579 13.15307 33868 ft 472 kts 347°
2026-05-07 14:41 38.18156 13.14976 33856 ft 472 kts 347°
2026-05-07 14:42 38.24709 13.14656 33857 ft 471 kts 346°
2026-05-07 14:42 38.31222 13.14326 33863 ft 472 kts 347°
2026-05-07 14:43 38.37789 13.14003 33871 ft 472 kts 347°
2026-05-07 14:43 38.44355 13.13672 33866 ft 472 kts 347°
2026-05-07 14:44 38.50923 13.13344 33875 ft 473 kts 347°
2026-05-07 14:44 38.57508 13.13013 33878 ft 473 kts 347°
2026-05-07 14:45 38.64088 13.12684 33882 ft 473 kts 347°
2026-05-07 14:45 38.70663 13.12352 33886 ft 474 kts 347°
2026-05-07 14:46 38.77267 13.12019 33893 ft 475 kts 347°
2026-05-07 14:46 38.83871 13.11685 33891 ft 476 kts 347°
2026-05-07 14:47 38.90466 13.11196 33895 ft 475 kts 346°
2026-05-07 14:47 38.97040 13.10774 33898 ft 476 kts 346°
2026-05-07 14:48 39.03657 13.10233 33898 ft 476 kts 345°
2026-05-07 14:48 39.10279 13.09760 33904 ft 477 kts 346°
2026-05-07 14:49 39.16912 13.09244 33906 ft 477 kts 345°
2026-05-07 14:49 39.23547 13.08751 33911 ft 477 kts 345°
2026-05-07 14:50 39.30170 13.08246 33911 ft 476 kts 345°
2026-05-07 14:50 39.36781 13.07744 33914 ft 475 kts 345°
2026-05-07 14:51 39.43371 13.07244 33919 ft 474 kts 344°
2026-05-07 14:51 39.49903 13.06745 33924 ft 473 kts 344°
2026-05-07 14:52 39.56462 13.06245 33921 ft 472 kts 343°
2026-05-07 14:52 39.63010 13.05744 33931 ft 471 kts 343°
2026-05-07 14:53 39.68440 13.05327 33934 ft 470 kts 343°
2026-05-07 14:53 39.74967 13.04826 33940 ft 470 kts 343°
2026-05-07 14:54 39.81506 13.04323 33940 ft 470 kts 342°
2026-05-07 14:54 39.88042 13.03819 33938 ft 470 kts 342°
2026-05-07 14:55 39.94583 13.03314 33944 ft 470 kts 342°
2026-05-07 14:55 40.01116 13.02809 33944 ft 470 kts 342°
2026-05-07 14:56 40.07616 13.02305 33945 ft 470 kts 342°
2026-05-07 14:56 40.14154 13.01797 33947 ft 470 kts 342°
2026-05-07 14:57 40.20702 13.01288 33951 ft 471 kts 342°
2026-05-07 14:57 40.27235 13.00778 33953 ft 470 kts 342°
2026-05-07 14:58 40.33751 13.00267 33952 ft 469 kts 343°
2026-05-07 14:58 40.40214 12.99761 33957 ft 468 kts 343°
2026-05-07 14:59 40.46708 12.99250 33960 ft 467 kts 343°
2026-05-07 14:59 40.49931 12.99003 33784 ft 458 kts 343°
2026-05-07 14:59 40.53122 12.98752 32557 ft 462 kts 345°
2026-05-07 15:00 40.56360 12.98471 31204 ft 471 kts 348°
2026-05-07 15:00 40.59658 12.98211 30041 ft 476 kts 350°
2026-05-07 15:00 40.62976 12.97972 28710 ft 479 kts 351°
2026-05-07 15:00 40.66299 12.97717 27479 ft 478 kts 351°
2026-05-07 15:01 40.69571 12.97448 27109 ft 460 kts 351°
2026-05-07 15:01 40.72641 12.97211 27092 ft 435 kts 351°
2026-05-07 15:01 40.75597 12.96983 26814 ft 418 kts 350°
2026-05-07 15:01 40.78500 12.96740 25975 ft 418 kts 350°
2026-05-07 15:02 40.81382 12.96502 25399 ft 411 kts 351°
2026-05-07 15:02 40.84218 12.96285 24810 ft 405 kts 351°
2026-05-07 15:02 40.87011 12.96067 24199 ft 399 kts 351°
2026-05-07 15:02 40.89766 12.95844 23609 ft 394 kts 351°
2026-05-07 15:03 40.92502 12.96109 22975 ft 400 kts 10°
2026-05-07 15:03 40.95028 12.97714 22219 ft 409 kts 31°
2026-05-07 15:03 40.97503 12.99448 21441 ft 398 kts 11°
2026-05-07 15:03 41.00177 12.99754 20778 ft 380 kts 348°
2026-05-07 15:04 41.02744 12.99050 19999 ft 375 kts 340°
2026-05-07 15:04 41.05249 12.98095 19275 ft 374 kts 340°
2026-05-07 15:04 41.07781 12.97251 18593 ft 375 kts 345°
2026-05-07 15:04 41.10377 12.96807 17854 ft 378 kts 352°
2026-05-07 15:05 41.13001 12.96662 17180 ft 375 kts 355°
2026-05-07 15:05 41.15559 12.96513 16545 ft 370 kts 352°
2026-05-07 15:05 41.18101 12.96165 15978 ft 363 kts 349°
2026-05-07 15:05 41.20567 12.95791 15953 ft 354 kts 351°
2026-05-07 15:06 41.23075 12.95501 15960 ft 364 kts 352°
2026-05-07 15:06 41.25584 12.95242 15962 ft 363 kts 352°
2026-05-07 15:06 41.28113 12.94937 15962 ft 364 kts 351°
2026-05-07 15:06 41.30627 12.94619 15963 ft 364 kts 351°
2026-05-07 15:07 41.33156 12.94316 15965 ft 364 kts 352°
2026-05-07 15:07 41.35675 12.94023 15969 ft 364 kts 352°
2026-05-07 15:07 41.38200 12.93721 15949 ft 359 kts 351°
2026-05-07 15:07 41.40673 12.93423 15204 ft 359 kts 352°
2026-05-07 15:08 41.43174 12.93120 14564 ft 358 kts 352°
2026-05-07 15:08 41.45636 12.92826 14031 ft 353 kts 352°
2026-05-07 15:08 41.48068 12.92534 13391 ft 350 kts 352°
2026-05-07 15:08 41.50478 12.92244 12786 ft 345 kts 353°
2026-05-07 15:09 41.52819 12.91883 12174 ft 340 kts 345°
2026-05-07 15:09 41.54920 12.90665 11592 ft 332 kts 323°
2026-05-07 15:09 41.56661 12.88684 10942 ft 328 kts 315°
2026-05-07 15:09 41.58304 12.86594 10358 ft 326 kts 315°
2026-05-07 15:10 41.59919 12.84555 10215 ft 309 kts 315°
2026-05-07 15:10 41.61446 12.82664 10177 ft 290 kts 315°
2026-05-07 15:10 41.62920 12.80830 9654 ft 292 kts 316°
2026-05-07 15:10 41.64402 12.78967 9167 ft 290 kts 316°
2026-05-07 15:11 41.65858 12.77140 8918 ft 281 kts 316°
2026-05-07 15:11 41.66781 12.75990 8942 ft 284 kts 316°
2026-05-07 15:11 41.68241 12.74165 8965 ft 284 kts 316°
2026-05-07 15:11 41.69693 12.72342 8980 ft 290 kts 316°
2026-05-07 15:12 41.71152 12.70511 8967 ft 287 kts 316°
2026-05-07 15:12 41.72623 12.68667 8969 ft 289 kts 316°
2026-05-07 15:12 41.74083 12.66833 8966 ft 289 kts 316°
2026-05-07 15:12 41.75544 12.64995 8967 ft 287 kts 316°
2026-05-07 15:13 41.77002 12.63163 8969 ft 289 kts 315°
2026-05-07 15:13 41.78388 12.61422 8969 ft 288 kts 315°
2026-05-07 15:13 41.79896 12.59513 8970 ft 317 kts 315°
2026-05-07 15:13 41.81523 12.57259 8971 ft 357 kts 312°
2026-05-07 15:14 41.83351 12.54809 8970 ft 374 kts 315°
2026-05-07 15:14 41.85165 12.52509 8967 ft 344 kts 315°
2026-05-07 15:14 41.86801 12.50337 8931 ft 318 kts 313°
2026-05-07 15:14 41.88262 12.48295 8932 ft 297 kts 313°
2026-05-07 15:15 41.89758 12.46426 8933 ft 295 kts 325°
2026-05-07 15:15 41.91630 12.45383 8946 ft 291 kts 342°
2026-05-07 15:15 41.93583 12.44620 8948 ft 291 kts 342°
2026-05-07 15:15 41.95515 12.43821 8947 ft 291 kts 341°
2026-05-07 15:16 41.97447 12.42999 8948 ft 291 kts 341°
2026-05-07 15:16 41.99361 12.42210 8748 ft 284 kts 342°
2026-05-07 15:16 42.01275 12.41422 8135 ft 288 kts 341°
2026-05-07 15:16 42.03181 12.40625 7756 ft 284 kts 341°
2026-05-07 15:17 42.05058 12.39840 7321 ft 282 kts 342°
2026-05-07 15:17 42.06927 12.39065 6899 ft 280 kts 342°
2026-05-07 15:17 42.08779 12.38295 6481 ft 277 kts 342°
2026-05-07 15:17 42.10615 12.37528 6047 ft 275 kts 342°
2026-05-07 15:18 42.12409 12.36780 5935 ft 264 kts 342°
2026-05-07 15:18 42.14216 12.36022 5947 ft 273 kts 342°
2026-05-07 15:18 42.16013 12.35266 5946 ft 275 kts 342°
2026-05-07 15:18 42.17811 12.34512 5947 ft 271 kts 342°
2026-05-07 15:19 42.19658 12.33737 5955 ft 274 kts 342°
2026-05-07 15:19 42.21475 12.32971 5952 ft 275 kts 342°
2026-05-07 15:19 42.23295 12.32202 5971 ft 273 kts 342°
2026-05-07 15:19 42.25094 12.31443 5973 ft 274 kts 342°
2026-05-07 15:20 42.26918 12.30672 5977 ft 275 kts 342°
2026-05-07 15:20 42.28745 12.29904 5978 ft 275 kts 342°
2026-05-07 15:20 42.30573 12.29137 5984 ft 275 kts 342°
2026-05-07 15:20 42.32400 12.28366 5986 ft 275 kts 342°
2026-05-07 15:21 42.34228 12.27595 5989 ft 275 kts 342°
2026-05-07 15:21 42.36058 12.26823 5992 ft 276 kts 342°
2026-05-07 15:21 42.37886 12.26051 5992 ft 275 kts 342°
2026-05-07 15:21 42.39650 12.25056 5996 ft 275 kts 324°
2026-05-07 15:22 42.40886 12.23123 5999 ft 274 kts 296°
2026-05-07 15:22 42.41340 12.20648 6002 ft 273 kts 269°
2026-05-07 15:22 42.40983 12.18135 6000 ft 273 kts 252°
2026-05-07 15:22 42.40397 12.15695 5999 ft 272 kts 251°
2026-05-07 15:23 42.39749 12.13295 5998 ft 272 kts 242°
2026-05-07 15:23 42.38489 12.11428 6003 ft 272 kts 213°
2026-05-07 15:23 42.36738 12.10534 6006 ft 271 kts 186°
2026-05-07 15:23 42.34866 12.10778 6004 ft 274 kts 165°
2026-05-07 15:24 42.33058 12.11555 6002 ft 273 kts 162°
2026-05-07 15:24 42.31248 12.12353 5997 ft 273 kts 163°
2026-05-07 15:24 42.29451 12.13113 5997 ft 274 kts 163°
2026-05-07 15:24 42.27633 12.13878 5996 ft 274 kts 163°
2026-05-07 15:25 42.25816 12.14650 5996 ft 274 kts 163°
2026-05-07 15:25 42.23993 12.15423 5983 ft 270 kts 163°
2026-05-07 15:25 42.22204 12.16180 5438 ft 272 kts 162°
2026-05-07 15:25 42.20395 12.16942 4972 ft 272 kts 162°
2026-05-07 15:26 42.18597 12.17702 4574 ft 270 kts 162°
2026-05-07 15:26 42.16808 12.18459 4120 ft 269 kts 162°
2026-05-07 15:26 42.15043 12.19149 3685 ft 267 kts 169°
2026-05-07 15:26 42.13190 12.19266 3247 ft 266 kts 181°
2026-05-07 15:27 42.11360 12.19171 3043 ft 256 kts 182°
2026-05-07 15:27 42.09540 12.19122 3077 ft 265 kts 180°
2026-05-07 15:27 42.07721 12.19119 3089 ft 266 kts 180°
2026-05-07 15:27 42.05877 12.19098 3097 ft 262 kts 181°
2026-05-07 15:28 42.04105 12.19058 3100 ft 246 kts 180°
2026-05-07 15:28 42.02456 12.19040 3143 ft 229 kts 180°
2026-05-07 15:28 42.00919 12.19250 3019 ft 220 kts 165°
2026-05-07 15:28 41.99451 12.19892 2696 ft 222 kts 160°
2026-05-07 15:29 41.98056 12.20522 2719 ft 197 kts 162°
2026-05-07 15:29 41.96826 12.21018 2631 ft 176 kts 163°
2026-05-07 15:29 41.95682 12.21476 2408 ft 168 kts 162°
2026-05-07 15:29 41.94608 12.21942 2198 ft 157 kts 162°
2026-05-07 15:30 41.93613 12.22414 1966 ft 151 kts 160°
2026-05-07 15:30 41.92623 12.22877 1705 ft 146 kts 162°
2026-05-07 15:30 41.91690 12.23278 1499 ft 140 kts 165°
2026-05-07 15:30 41.90769 12.23640 1333 ft 136 kts 165°
2026-05-07 15:31 41.89892 12.24023 1112 ft 133 kts 165°
2026-05-07 15:31 41.89002 12.24389 746 ft 130 kts 167°
2026-05-07 15:31 41.88153 12.24731 508 ft 142 kts 170°
2026-05-07 15:31 41.87592 12.24942 474 ft 148 kts 167°
2026-05-07 15:32 41.86718 12.25297 363 ft 131 kts 167°
2026-05-07 15:32 41.85797 12.25656 260 ft 156 kts 168°
2026-05-07 15:32 41.84718 12.26114 140 ft 156 kts 165°
2026-05-07 15:33 41.83733 12.26520 22 ft 143 kts 167°
2026-05-07 15:33 41.82970 12.26817 14 ft 78 kts 164°
2026-05-07 15:33 41.82613 12.26839 11 ft 44 kts 193°
2026-05-07 15:33 41.82346 12.26791 12 ft 35 kts 168°
2026-05-07 15:34 41.82152 12.26885 11 ft 26 kts 124°
2026-05-07 15:34 41.82084 12.26949 12 ft 4 kts 176°
2026-05-07 15:34 41.82075 12.26949 11 ft 0 kts 176°
2026-05-07 15:34 41.82072 12.26950 10 ft 3 kts 176°
2026-05-07 15:35 41.81975 12.26956 11 ft 23 kts 175°
2026-05-07 15:35 41.81762 12.27020 12 ft 39 kts 168°
2026-05-07 15:35 41.81450 12.27140 14 ft 53 kts 161°
2026-05-07 15:35 41.81069 12.27301 13 ft 58 kts 162°
2026-05-07 15:36 41.80735 12.27318 13 ft 39 kts 199°
2026-05-07 15:36 41.80594 12.27015 14 ft 40 kts 252°
2026-05-07 15:36 41.80499 12.26655 17 ft 41 kts 250°
2026-05-07 15:36 41.80410 12.26385 15 ft 17 kts 222°
2026-05-07 15:37 41.80345 12.26366 15 ft 8 kts 163°
2026-05-07 15:37 41.80266 12.26398 16 ft 16 kts 167°
2026-05-07 15:37 41.80141 12.26354 14 ft 22 kts 207°
2026-05-07 15:37 41.80004 12.26353 14 ft 20 kts 162°
2026-05-07 15:38 41.79918 12.26394 14 ft 1 kts 155°
2026-05-07 15:38 41.79910 12.26429 14 ft 8 kts 89°
2026-05-07 15:38 41.79918 12.26469 15 ft 0 kts 69°
2026-05-07 15:38 41.79921 12.26478 14 ft 0 kts 69°